Regional Weather Roundup
Issued by NWS Sioux Falls, SD

Home | Current Version | Previous Version | Graphics & Text | Print | Product List | Glossary Off
Versions: 1 2 3 4 5 6 7 8 9 10 11 12 13 14 15 16 17 18 19 20 21 22 23 24 25 26 27 28 29 30 31 32 33 34 35 36 37 38 39 40 41 42 43 44 45 46 47 48 49 50

000
ASUS43 KFSD 050102
RWRFSD

WEATHER ROUNDUP FOR SE SOUTH DAKOTA/SW MINNESOTA/NW IOWA
NATIONAL WEATHER SERVICE SIOUX FALLS SD
800 PM CDT FRI SEP 04 2015

NOTE: "FAIR" INDICATES FEW OR NO CLOUDS BELOW 12,000 FEET WITH NO
SIGNIFICANT WEATHER AND OR OBSTRUCTIONS TO VISIBILITY.


SDZ038>040-050-052>070-050200-
SOUTHEAST SOUTH DAKOTA

CITY           SKY/WX    TMP DP  RH WIND       PRES   REMARKS
BROOKINGS      MOCLDY    77  70  78 SE12G21   29.87R
CHAMBERLAIN    CLOUDY    83  71  66 E6        29.75S
HURON          PTCLDY    81  72  74 SE12      29.77R
MADISON        FAIR      75  75 100 SE13G20   29.85R
MITCHELL       MOCLDY    81  73  76 SE6       29.77R
SIOUX FALLS    MOCLDY    80  71  74 SE15G26   29.84S
WINNER         FAIR      86  63  45 SE8       29.76S
YANKTON        CLEAR     82  72  69 SE13      29.80R
$$

MNZ071-072-080-081-089-090-097-098-050200-
SOUTHWEST MINNESOTA

CITY           SKY/WX    TMP DP  RH WIND       PRES   REMARKS
FAIRMONT       CLOUDY    79  68  69 SE8       29.92S
JACKSON        MOCLDY    77  73  88 SE8       29.93S
LUVERNE        PTCLDY    77  70  78 SE9       29.88S
MARSHALL       PTCLDY    79  66  65 S15       29.87R
MONTEVIDEO     MOCLDY    75  70  83 S9        29.86F
PIPESTONE      PTCLDY    77  72  83 SE10G18   29.89R
REDWOOD FALLS  CLOUDY    76  70  82 S10       29.88R
TRACY          PTCLDY    77  72  84 S9        29.89R
WINDOM         MOCLDY    75  70  83 E6        29.91S
WORTHINGTON    PTCLDY    75  70  83 SE9       29.91R
$$

IAZ001>003-012>014-020>022-031-032-NEZ013-014-SDZ071-050200-
NORTHWEST IOWA

CITY           SKY/WX    TMP DP  RH WIND       PRES   REMARKS
DENISON        CLEAR     79  72  78 SE8G17    29.89R
ESTHERVILLE    MOCLDY    76  73  91 SE7       29.93R
LE MARS        PTCLDY    81  73  78 SE8G15    29.87F
SIOUX CITY     PTCLDY    82  72  71 SE12      29.84S
SPENCER        HAZE      80  71  74 SE12      29.91S VSB 1/2
$$

ABBREVIATIONS USED IN REMARKS
   TC - TEMPERATURE IN CELSIUS
  WCI - WIND CHILL INDEX
   HX - HEAT INDEX
  VSB - VISIBILITY




USA.gov is the U.S. government's official web portal to all federal, state and local government web resources and services.